STARLINK-32477, 62038

Orbit data source: Space-Track

STARLINK-32477, 62038 is a payload satellite owned by SpaceX/Seattle (US) in LEO that was launched on Thu, 21 Nov 2024 UTC via an FALCON 9 launch vehicle from the Air Force Eastern Test Range (AFETR). Payload-class satellites include a variety of spacecraft equipped with specific instruments for various scientific and technological missions. These include communications satellites like Starlink; space stations such as the ISS; scientific satellites like the Hubble; Earth observation satellites from companies like Planet Labs, Umbra, and HawkEye 360; GPS; miniature CubeSats for education and research; and military/defense satellites.

Loading next visibility...
Identifier
62038, 2024-216G
Orbit
LEO
Last TLE update
3 hours ago
Origin
Manufacturer
SpaceX/Seattle
Mission
Operational Commercial Communications
Bus & Motor
STARLINK V2M, Unknown motor
Mass
730 kg wet, ~700 kg dry
Launch date (UTC)
2024-11-21 (7 months ago)
Launch vehicle
FALCON 9
Launch site
Air Force Eastern Test Range (AFETR)
Object type
Payload
Rocket body
Debris
Shape & HBR
Box + 2 Pan, 29 m
Radar Cross Section
36.964 m², Large (>1 m²)

Expand to show TLE details & history

TLE from 3 hours ago
0 STARLINK-32477
1 62038U 24216G   25182.25002315 -.01264826  00000-0 -35840-1 0  9992
2 62038  43.0002 236.4654 0001528 255.3824 320.8557 15.38660831 35341
Epoch: 2025-07-01T06:00Z
TLE epoch observation values (Epoch: 2025-07-01T06:00:02Z)
Latitude
-23.93578°
Longitude
75.16198°
Altitude
455.024 km
Speed
7.641 km/s
True Right ascension
05h 38m 52s
True Declination
-23° 48' 10"
Sunlit
Object was in daylight at epoch
Visualization orbit readout
Latitude
7.26297°
Longitude
38.40036°
Altitude
450.188 km
Speed
7.645 km/s
Apparent Right ascension
05h 21m 33s
Apparent Declination
-19° 38' 20"
Sunlit
Object is in daylight
Visualization observer readout
Local Sidereal Time
20:33:01
Azimuth
78.063° E
Elevation
-44.448°
Doppler factor
1
Orbital elements
Apogee altitude
453.067 km
Perigee altitude
450.979 km
Semi-major axis
6,830.16 km
Eccentricity
0.00015
Inclination
43.0002°
RAAN
236.4654°
Arg. of periapsis
255.3824°
True anomaly
Unknown
Mean anomaly
320.8557°
Eccentric anomaly
Unknown
Mean motion
3.845 °/min
Orbital period
93.63 mins
BSTAR
-0.03584
Loading maneuver chart data...
Loading SW <> Apogee altitude chart data...
Loading historical data...
Loading historical data...
Loading historical data...
Loading historical data...
Loading historical data...
Loading historical data...
Loading historical data...

STARLINK-32477 Visibility forecast

Observer location: undefined°, undefined°

Span
Click to sort rows by Start time (UTC) header in descending order
Start Az.
Max El. time (UTC)
Max El. Az.
Max El.
End time (UTC)
End Az.
6 mins2025-07-01 10:04:49.345Z285.441° WNW2025-07-01 10:07:49.345Z352.546° N37.174°2025-07-01 10:10:49.345Z74.834° E
6 mins2025-07-01 11:43:49.345Z288.441° WNW2025-07-01 11:46:49.345Z105.91° ESE42.51°2025-07-01 11:49:49.345Z108.643° ESE
4 mins2025-07-01 13:22:49.345Z248.815° W2025-07-01 13:24:49.345Z201.603° SSW19.929°2025-07-01 13:26:49.345Z165.381° S
4 mins2025-07-02 06:12:49.345Z182.906° SSW2025-07-02 06:14:49.345Z138.186° SSE19.953°2025-07-02 06:16:49.345Z99.998° ESE
5 mins2025-07-02 07:50:49.345Z250.688° W2025-07-02 07:52:49.345Z73.825° E44.456°2025-07-02 07:55:49.345Z71.968° E
|